Regional Weather Roundup
Issued by NWS Sioux Falls, SD

Home | Current Version | Previous Version | Graphics & Text | Print | Product List | Glossary On
Versions: 1 2 3 4 5 6 7 8 9 10 11 12 13 14 15 16 17 18 19 20 21 22 23 24 25 26 27 28 29 30 31 32 33 34 35 36 37 38 39 40 41 42 43 44 45 46 47 48 49 50
577
ASUS43 KFSD 191402
RWRFSD

WEATHER ROUNDUP FOR SE SOUTH DAKOTA/SW MINNESOTA/NW IOWA
NATIONAL WEATHER SERVICE SIOUX FALLS SD
900 AM CDT THU OCT 19 2017

NOTE: "FAIR" INDICATES FEW OR NO CLOUDS BELOW 12,000 FEET WITH NO
SIGNIFICANT WEATHER AND OR OBSTRUCTIONS TO VISIBILITY.


SDZ038>040-050-052>070-191500-
SOUTHEAST SOUTH DAKOTA

CITY           SKY/WX    TMP DP  RH WIND       PRES   REMARKS
BROOKINGS      CLOUDY    43  31  62 S14       30.02S
CHAMBERLAIN    CLEAR     56  40  54 S15       29.95R
HURON          CLOUDY    43  33  68 SE9       29.96S
MADISON        FAIR      43  32  65 S12       30.02S
MITCHELL       CLOUDY    46  35  65 SE9       30.00R
SIOUX FALLS    CLOUDY    52  35  52 S9        30.04S
WINNER         FAIR      55  36  48 S25G35    29.93R
YANKTON        SUNNY     44  37  76 CALM      30.04R
$$

MNZ071-072-080-081-089-090-097-098-191500-
SOUTHWEST MINNESOTA

CITY           SKY/WX    TMP DP  RH WIND       PRES   REMARKS
FAIRMONT       CLOUDY    44  37  76 S8        30.08F
JACKSON        CLOUDY    46  32  57 S10       30.08R
MARSHALL       CLOUDY    51  31  46 S14       30.01S
MONTEVIDEO     CLOUDY    46  34  61 S7        30.00S
PIPESTONE      CLOUDY    46  28  49 S8        30.04R
REDWOOD FALLS  CLOUDY    45  34  65 S8        30.03S
TRACY          CLOUDY    53  32  45 S14       30.03S
WORTHINGTON    CLOUDY    48  32  53 S6        30.08R
$$

IAZ001>003-012>014-020>022-031-032-NEZ013-014-SDZ071-191500-
NORTHWEST IOWA

CITY           SKY/WX    TMP DP  RH WIND       PRES   REMARKS
CHEROKEE       SUNNY     40  40 100 CALM      30.08S
DENISON        SUNNY     52  36  54 SE9       30.10R
ESTHERVILLE    CLOUDY    44  36  73 S8        30.09R
LE MARS        SUNNY     46  37  71 CALM      30.06S
ORANGE CITY    SUNNY     50  36  57 SE3       30.06S
SHELDON        MIX PCPN  43  36  75 SE5       30.06R
SIOUX CITY     SUNNY     44  40  85 E7        30.06S
SPENCER        SUNNY     40  38  93 CALM      30.09R
STORM LAKE     SUNNY     50  34  53 SE13      30.08S
$$

ABBREVIATIONS USED IN REMARKS
   TC - TEMPERATURE IN CELSIUS
  WCI - WIND CHILL INDEX
   HX - HEAT INDEX
  VSB - VISIBILITY





USA.gov is the U.S. government's official web portal to all federal, state and local government web resources and services.